[Iaude] MPEC G76: 2024 GX [a=1.60,e=0.77,i=46.7,H=23.6]
    mpec at cfa.harvard.edu 
    mpec at cfa.harvard.edu
       
    Sat Apr  6 03:37:31 EDT 2024
    
    
  
M.P.E.C. 2024-G76                                 Issued 2024 April 6, 07:36 UT
     The Minor Planet Electronic Circulars contain information on unusual
         minor planets, routine data on comets and natural satellites,
         and occasional editorial announcements.  They are published
    on behalf of Division F of the International Astronomical Union by the
          Minor Planet Center, Smithsonian Astrophysical Observatory,
                          Cambridge, MA 02138, U.S.A.
			  
             Prepared using the Tamkin Foundation Computer Network
                              MPC at CFA.HARVARD.EDU
            URL https://www.minorplanetcenter.net/    ISSN 1523-6714
                                    2024 GX                                     
Observations:
     K24G00X*1C2024 04 04.38665614 05 05.647-11 36 02.66         21.72GVEG076G96
     K24G00X 1C2024 04 04.39244314 05 04.866-11 35 04.63         21.10GVEG076G96
     K24G00X 1C2024 04 04.39823414 05 04.067-11 34 06.02         20.73GVEG076G96
     K24G00X 1C2024 04 04.40401714 05 03.275-11 33 08.96         21.18GVEG076G96
     K24G00X KC2024 04 04.46672114 04 54.800-11 22 38.82         20.97GVEG076I52
     K24G00X KC2024 04 04.47074414 04 54.289-11 21 58.43         21.35GVEG076I52
     K24G00X KC2024 04 04.47477714 04 53.771-11 21 17.06         21.00GVEG076I52
     K24G00X KC2024 04 04.47881314 04 53.191-11 20 36.71         21.23GVEG076I52
     K24G00X 1C2024 04 05.02804 14 03 44.63 -09 44 08.3          21.2 VXEG076033
     K24G00X 1C2024 04 05.02949 14 03 44.44 -09 43 52.9          21.3 VXEG076033
     K24G00X 1C2024 04 05.03094 14 03 44.19 -09 43 36.9          21.3 VXEG076033
     K24G00X 1C2024 04 05.03238 14 03 44.02 -09 43 21.1          21.3 VXEG076033
     K24G00X KC2024 04 05.31212914 03 06.48 -08 50 33.4          21.6 GXEG076858
     K24G00X KC2024 04 05.32240014 03 04.88 -08 48 35.1          21.0 GXEG076858
     K24G00X KC2024 04 05.33273414 03 03.26 -08 46 35.0          20.7 GXEG076858
     K24G00X |C2024 04 06.15315014 01 01.350-05 55 52.80         20.8 GVEG076807
     K24G00X |C2024 04 06.15866014 01 00.430-05 54 39.80         20.7 GVEG076807
     K24G00X |C2024 04 06.16416014 00 59.460-05 53 26.80         20.6 GVEG076807
     K24G00X KC2024 04 06.29094614 00 37.40 -05 25 55.9          20.5 GVEG076H21
     K24G00X KC2024 04 06.29886814 00 35.98 -05 24 08.3          20.6 GVEG076H21
     K24G00X KC2024 04 06.30436614 00 34.99 -05 22 53.4          20.7 GVEG076H21
Observer details:
033 Karl Schwarzschild Observatory, Tautenburg.  Observers S. Melnikov, C.
    Hogner, F. Ludwig, M. Hartmann, B. Stecklum.  Measurer B. Stecklum.
    1.34-m f/3 Schmidt + CCD.
807 Cerro Tololo Observatory, La Serena.  Observers T. Linder, R. Holmes.
    0.61-m f/6.8 Ritchey-Chretien + CCD.
858 Tebbutt Observatory, Edgewood.  Observer F. B. Zoltowski.  0.51-m f/8.1
    Schmidt-Cassegrain + CCD.
G96 Mt. Lemmon Survey.  Observer G. J. Leonard.  Measurers T. Beuden, V. F.
    Carvajal, D. Fay, J. B. Fazekas, D. C. Fuls, A. R. Gibbs, A. D. Grauer, H.
    Groeller, J. K. Hogan, R. A. Kowalski, S. M. Larson, G. J. Leonard, D.
    Rankin, R. L. Seaman, F. C. Shelly, K. W. Wierzchos.  1.5-m reflector +
    10K CCD.
H21 Astronomical Research Observatory, Westfield.  Observer R. Holmes.
    Measurers T. Linder, R. Holmes, L. Horn.  0.76-m f/3.0 astrograph + CCD.
I52 Steward Observatory, Mt. Lemmon Station.  Observer R. A. Kowalski.
    Measurers T. Beuden, V. F. Carvajal, D. Fay, J. B. Fazekas, D. C. Fuls, A.
    R. Gibbs, A. D. Grauer, H. Groeller, J. K. Hogan, R. A. Kowalski, S. M.
    Larson, G. J. Leonard, D. Rankin, R. L. Seaman, F. C. Shelly, K. W.
    Wierzchos.  1.0-m prime focus + CCD.
Orbital elements:
2024 GX                                                  Earth MOID = 0.1032 AU
Epoch 2024 Mar. 31.0 TT = JDT 2460400.5                 MPC                     
M 328.63800              (2000.0)            P               Q                  
n   0.48572498     Peri.  126.12944     +0.73016257     +0.64649360             
a   1.6027868      Node   197.69713     -0.55365381     +0.74947560             
e   0.7675360      Incl.   46.67822     +0.40041237     -0.14259151             
P   2.03           H   23.66          G   0.15           U   9                  
Residuals in seconds of arc
240404 G96  0.1+  0.5-    240404 I52  0.1-  0.3-    240405 858  0.1+  0.4+
240404 G96  0.1+  0.2-    240405 033  0.0   0.9+    240406 807  0.4-  0.1+
240404 G96  0.1-  0.7+    240405 033  0.3+  0.3+    240406 807  0.3+  0.1-
240404 G96  0.2-  0.0     240405 033  0.3-  0.3+    240406 807  0.4+  0.2-
240404 I52  0.3-  0.1-    240405 033  0.3+  0.2+    240406 H21  0.3-  0.2+
240404 I52  0.1+  0.3-    240405 858  0.2+  0.4+    240406 H21  0.0   0.0
240404 I52  0.4+  0.2+    240405 858  0.2+  0.0     240406 H21  0.0   0.1-
Ephemeris:
2024 GX                  a,e,i = 1.60, 0.77, 47                  q = 0.3726
Date    TT    R. A. (2000) Decl.     Delta      r    Elong.  Phase     V
2024 03 07    14 12 01.8 -32 23 07   0.7536  1.5370   122.8    32.9    25.4
...
2024 03 22    14 15 50.6 -28 27 26   0.4503  1.3657   138.2    29.1    23.9
...
2024 03 30    14 12 23.7 -21 50 21   0.2990  1.2669   150.2    23.1    22.6
...
2024 04 05    14 03 48.6 -09 48 48   0.1959  1.1891   162.9    14.3    21.3
2024 04 06    14 01 24.3 -06 29 53   0.1804  1.1758   164.8    12.9    21.1
2024 04 07    13 58 33.6 -02 34 47   0.1658  1.1624   165.7    12.2    20.8
...
2024 04 13    13 21 50.0 +39 01 45   0.1111  1.0801   131.9    43.7    20.7
...
2024 04 21    05 50 16.4 +77 28 28   0.1758  0.9648    71.9    98.1    23.3
...
2024 05 06    03 02 54.2 +55 53 15   0.4251  0.7320    39.4   118.9    25.9
A. U. Tomatic                (C) Copyright 2024 MPC           M.P.E.C. 2024-G76
    
    
More information about the Iaude
mailing list